Miscellaneous Local Product
Issued by NWS Hastings, NE

Home | Current Version | Previous Version | Text Only | Print | Product List | Glossary Off
Versions: 1 2 3 4 5 6 7 8 9 10 11 12 13 14 15 16 17 18 19 20 21 22 23 24 25 26 27 28 29 30 31 32 33 34 35 36 37 38 39 40 41 42 43 44 45 46 47 48 49 50

000
AXUS43 KGID 261202
MISGRI

GID CWA HOURLY WEATHER ROUNDUP
NATIONAL WEATHER SERVICE HASTINGS NE
700 AM CDT WED APR 26 2017

NOTE: "FAIR" INDICATES FEW OR NO CLOUDS BELOW 12,000 FEET WITH NO
SIGNIFICANT WEATHER AND/OR OBSTRUCTIONS TO VISIBILITY.

...SOUTH CENTRAL NEBRASKA...

CITY           SKY/WX    TMP DP  RH WIND       PRES   REMARKS
GRAND ISLAND   CLOUDY    34  30  85 NW16G24   29.74S WCI  24
HASTINGS       CLOUDY    35  29  78 NW22G30   29.72F WCI  23
KEARNEY        CLOUDY    34  25  69 NW14G22   29.75F WCI  24
ORD            CLOUDY    32  27  81 NW20G28   29.75R WCI  20
YORK           CLOUDY    36  32  87 NW23G30   29.71R WCI  24
AURORA         CLOUDY    34  31  87 NW18G30   29.72S WCI  23
LEXINGTON      CLOUDY    33  27  77 N16       29.78S WCI  23
HOLDREGE       CLOUDY    32  28  82 NW13G22   29.76S WCI  23
HEBRON         CLOUDY    37  31  81 N20G30    29.70S WCI  26

...NEBRASKA PANHANDLE...

CITY           SKY/WX    TMP DP  RH WIND       PRES   REMARKS
CHADRON        CLOUDY    30  26  85 N7        29.87R WCI  23
ALLIANCE       CLOUDY    28  25  88 NW14      29.82S WCI  17
SCOTTSBLUFF    CLOUDY    32  26  78 N3        29.85R
SIDNEY         MOCLDY    30  26  85 N14       29.81S WCI  19

...WESTERN AND NORTH CENTRAL NEBRASKA...

CITY           SKY/WX    TMP DP  RH WIND       PRES   REMARKS
VALENTINE      CLOUDY    32  25  75 NW15G24   29.82R WCI  22
AINSWORTH      CLOUDY    31  29  93 NW17      29.79R WCI  19
ONEILL         CLOUDY    32  29  89 NW21      29.75R WCI  20
BROKEN BOW     CLOUDY    32  25  75 N23       29.76R WCI  19
IMPERIAL       PTCLDY    28  24  85 NW12      29.83R WCI  18
NORTH PLATTE   CLOUDY    33  25  72 N17G23    29.81R WCI  22
MCCOOK         CLOUDY    34  26  72 NW17G23   29.80F WCI  23

...EASTERN NEBRASKA...

CITY           SKY/WX    TMP DP  RH WIND       PRES   REMARKS
NORFOLK        CLOUDY    33  28  81 NW24G35   29.69R WCI  20
SO SIOUX CITY  CLOUDY    35  33  92 NW25G33   29.63S WCI  23
TEKAMAH        CLOUDY    36  32  85 NW22G28   29.64F WCI  25
COLUMBUS       CLOUDY    36  27  69 NW24G31   29.70S WCI  24
ALBION         CLOUDY    34  29  83 NW23G32   29.72R WCI  22
OMAHA EPPLEY   CLOUDY    37  32  82 NW24G30   29.63R WCI  26
OFFUTT AFB     CLOUDY    37  33  84 NW16G29   29.63R WCI  27
MILLARD        CLOUDY    38  35  86 NW16G23   29.65R WCI  30
LINCOLN        CLOUDY    38  31  76 NW18G28   29.69R WCI  28
NEBRASKA CITY  CLOUDY    37  32  81 N18G26    29.61S WCI  27
BEATRICE       CLOUDY    38  33  82 NW23      29.68R WCI  27
FALLS CITY     CLOUDY    39  35  86 NW18G26   29.63R WCI  30

...NORTHERN KANSAS...

CITY           SKY/WX    TMP DP  RH WIND       PRES   REMARKS
GOODLAND       CLOUDY    31  27  85 N13       29.81R WCI  21
HILL CITY      MOCLDY    36  27  69 NW16G24   29.79R WCI  26
NORTON         CLOUDY    34  23  64 NW17      29.76F WCI  23
PHILLIPSBURG   CLOUDY    37  28  70 NW13      29.77R WCI  29
SMITH CENTER   CLOUDY    36  28  75 NW15G23   29.75R WCI  26
HAYS           CLOUDY    38  29  70 N15       29.77R WCI  29
RUSSELL        CLOUDY    38  30  73 NW16G25   29.75R WCI  29
CONCORDIA      CLOUDY    38  33  82 NW21G31   29.70R WCI  28
SALINA         CLOUDY    43  35  73 N20       29.71R
TOPEKA         CLOUDY    42  38  85 NW15G23   29.65R



USA.gov is the U.S. government's official web portal to all federal, state and local government web resources and services.